Location: Fuglau
(48.6333°N, 15.5500°E)
Time: 09:51:33
(UTC+00:00)

Cosmos 1092 Rocket - Pass Details

Date: 27 February 2020
Orbit: 955 x 994 km, 82.9° (Epoch: 29 March)

Event Time Altitude Azimuth Distance (km) Brightness Sun altitude
Rises 18:44:08 0° 350° (N) 3,723 7.3 -21.6°
Reaches altitude 10° 18:46:41 10° 351° (N) 2,772 6.6 -22.0°
Maximum altitude 18:53:04 89° 73° (ENE) 1,002 4.0 -23.0°
Enters shadow 18:58:48 13° 173° (S) 2,526 5.9 -24.0°
